Погода в Маунтин-Вью

США     37°23′09″N   122°05′02″W
темп.,
°C
ветер,
м/с
пор.,
м/с
влажн.,
%
обл.,
%
осадки,
мм/ч
давл.,
гПа
погр.,
м
27 июля, вт
вт2723:00+18сз216116 0.0 1014199
02:00+18сз2263100 0.0 1014147
05:00+18сз1161100 0.0 1014124
08:00+19сз125488 0.0 1015142
11:00+27сз22335 0.0 1015418
14:00+29сз44330 0.0 1015523
17:00+28сз45370 0.0 1014570
20:00+23сз34500 0.0 1015327
28 июля, ср
ср2823:00+21ссз11610 0.0 1016174
02:00+20сз22665 0.0 1016151
05:00+18сз226812 0.0 1016161
08:00+20сз00575 0.0 1017194
11:00+28зсз223391 0.0 1016443
14:00+32сз442312 0.0 1015595
17:00+32сз55240 0.0 1014625
20:00+25сз343889 0.0 1015326
29 июля, чт
чт2923:00+22сз124554 0.0 1015194
02:00+21сз12495 0.0 1014160
05:00+20сз1154100 0.0 1014144
08:00+21зсз115020 0.0 1015229
11:00+29зсз22305 0.0 1014436
14:00+32сз442329 0.0 1012553
17:00+32сз45225 0.0 1011584
20:00+27сз34330 0.0 1012267
30 июля, пт
пт3023:00+23сз22420 0.0 1012174
02:00+21сз11460 0.0 1012125
05:00+20сз11510 0.0 101189
08:00+22сз11450 0.0 1012201
11:00+29зсз22280 0.0 1013443
14:00+33сз44220 0.0 1012556
17:00+33сз4422100 0.0 1011540
20:00+25сз3438100 0.0 1013291
31 июля, сб
сб3123:00+22зсз1149100 0.0 1014209
02:00+21з1153100 0.0 1014199
05:00+20з1155100 0.0 1015191
08:00+21сз1054100 0.0 1016229
11:00+25сз214062 0.0 1016411
14:00+31сз432874 0.0 1015517
17:00+30сз442724 0.0 1014497
20:00+25сз333840 0.0 1015260